Flag for U.S.A. Weather past 2 weeks in Durham, North Carolina, U.S.A.

Now
84 °F

Broken clouds.


Feels Like: 90 °F
Forecast: 71 / 81 °F
Wind: 5 mph from East

Location: Raleigh-Durham International Airport

Current Time: Aug 23, 2014 at 1:54:54 PM

Latest Report: Aug 23, 2014 at 12:51 PM


Visibility: 10 mi

Pressure: 29.95 "Hg

Humidity: 67%

Dew point: 72 °F

Location of DurhamLocation

Historic Weather in Durham — Graph

°F

Durham temperature yesterday

Maximum temperature yesterday: 90 °F (at 1:51 PM)
Minimum temperature yesterday: 72 °F (at 5:51 AM)
Average temperature yesterday: 80 °F

Past Weeks' High & Low Weather Summary

 TemperatureHumidityPressure
High90 °F (Aug 21, 2:51 PM)94% (Aug 10, 1:04 AM)30.14 "Hg (Aug 10, 1:04 AM)
Low58 °F (Aug 14, 6:51 AM)39% (Aug 14, 12:51 PM)29.77 "Hg (Aug 19, 3:51 AM)
Average76 °F75%29.97 "Hg
* Reported Aug 8 12:51 PM — Aug 23 12:51 PM, Durham, Weather by CustomWeather, © 2014

Note: Actual official high and low records may vary slightly from our data, if they occured in-between our weather recording intervals... More about our weather records

Advertising

Durham weather history for previous 24 hours

 ConditionsComfort  
Time TempWeatherWind HumidityBarometerVisibility
12:51 PM
Aug 23
84 °FBroken clouds.5 mph67%29.95 "Hg10 mi
11:51 AM81 °FCloudy.6 mph72%29.96 "Hg10 mi
10:51 AM81 °FPartly sunny.6 mph69%29.96 "Hg10 mi
9:51 AM79 °FBroken clouds.5 mph74%29.96 "Hg10 mi
8:51 AM77 °FBroken clouds.7 mph79%29.95 "Hg10 mi
7:51 AM76 °FBroken clouds.6 mph85%29.94 "Hg10 mi
6:51 AM75 °FPassing clouds.3 mph88%29.92 "Hg10 mi
5:51 AM75 °FPassing clouds.5 mph88%29.90 "Hg9 mi
4:51 AM75 °FPartly cloudy.No wind90%29.91 "Hg9 mi
3:51 AM75 °FPassing clouds.No wind88%29.93 "Hg10 mi
2:51 AM76 °FPartly cloudy.No wind88%29.93 "Hg10 mi
1:51 AM76 °FPartly cloudy.5 mph91%29.94 "Hg9 mi
12:51 AM76 °FPartly cloudy.No wind91%29.95 "Hg9 mi
11:51 PM
Aug 22
80 °FPartly cloudy.3 mph76%29.96 "Hg10 mi
10:51 PM79 °FPassing clouds.No wind82%29.96 "Hg10 mi
9:51 PM77 °FPassing clouds.No wind88%29.96 "Hg9 mi
8:51 PM77 °FPartly sunny.No wind88%29.94 "Hg10 mi
7:51 PM79 °FBroken clouds.No wind82%29.94 "Hg10 mi
6:51 PM82 °FPartly sunny.No wind72%29.95 "Hg10 mi
5:51 PM83 °FPartly sunny.3 mph72%29.96 "Hg10 mi
4:51 PM83 °FThunderstorms. Partly sunny.10 mph65%29.97 "Hg10 mi
3:51 PM88 °FBroken clouds.3 mph57%29.96 "Hg10 mi
2:51 PM90 °FBroken clouds.7 mph52%29.98 "Hg10 mi
1:51 PM90 °FBroken clouds.5 mph54%29.99 "Hg10 mi
Weather by CustomWeather, © 2014

See weather overviewHow to use our weather pages